This is the latest recevied weather packets stored in our database for station/object AB4KN. If no packets are shown the sender has not sent any weather packets the latest 1 day(s).
| Time | Temp. | Humidity | Pressure | Rain* | Wind** | Luminosity | Snow |
|---|---|---|---|---|---|---|---|
| 1777988173 | 16.67° C | 71% | 1021.1 hPa | 0 mm | 0 m/s | 19 W/m² | - |
| 1777987869 | 16.67° C | 72% | 1020.9 hPa | 0 mm | 0 m/s | 19 W/m² | - |
| 1777987566 | 16.11° C | 73% | 1020.9 hPa | 0 mm | 0 m/s | 18 W/m² | - |
| 1777987263 | 16.11° C | 74% | 1021.2 hPa | 0 mm | 0 m/s | 19 W/m² | - |
| 1777986960 | 15.56° C | 75% | 1021.1 hPa | 0 mm | 0 m/s | 17 W/m² | - |
| 1777986658 | 15.56° C | 76% | 1020.9 hPa | 0 mm | 0 m/s | 17 W/m² | - |
| 1777986355 | 15° C | 77% | 1020.8 hPa | 0 mm | 0 m/s | 16 W/m² | - |
| 1777986054 | 14.44° C | 78% | 1020.7 hPa | 0 mm | 0 m/s | 16 W/m² | - |
| 1777985750 | 14.44° C | 79% | 1020.8 hPa | 0 mm | 0 m/s | 15 W/m² | - |
| 1777985447 | 13.89° C | 79% | 1020.7 hPa | 0 mm | 0 m/s | 14 W/m² | - |
| 1777985144 | 13.89° C | 79% | 1020.8 hPa | 0 mm | 0 m/s | 15 W/m² | - |
| 1777984840 | 13.89° C | 80% | 1020.6 hPa | 0 mm | 0 m/s | 13 W/m² | - |
| 1777984536 | 13.33° C | 80% | 1020.5 hPa | 0 mm | 0 m/s | 13 W/m² | - |
| 1777984233 | 13.33° C | 80% | 1020.5 hPa | 0 mm | 0 m/s | 16 W/m² | - |
| 1777983930 | 12.78° C | 79% | 1020.6 hPa | 0 mm | 0 m/s | 13 W/m² | - |
| 1777983627 | 12.78° C | 79% | 1020.7 hPa | 0 mm | 0 m/s | 12 W/m² | - |
| 1777983323 | 12.78° C | 79% | 1020.6 hPa | 0 mm | 0 m/s | 10 W/m² | - |
| 1777983020 | 12.78° C | 79% | 1020.6 hPa | 0 mm | 0 m/s | 10 W/m² | - |
| 1777982716 | 12.78° C | 79% | 1020.7 hPa | 0 mm | 0 m/s | 12 W/m² | - |
| 1777982411 | 12.78° C | 79% | 1020.4 hPa | 0 mm | 0 m/s | 12 W/m² | - |
| 1777982107 | 12.78° C | 79% | 1020.4 hPa | 0 mm | 0 m/s | 10 W/m² | - |
| 1777981805 | 12.22° C | 79% | 1020.2 hPa | 0 mm | 0 m/s | 7 W/m² | - |
| 1777981501 | 12.22° C | 79% | 1020.1 hPa | 0 mm | 0 m/s | 6 W/m² | - |
| 1777981198 | 12.22° C | 79% | 1020 hPa | 0 mm | 0 m/s | 8 W/m² | - |
| 1777980894 | 12.22° C | 79% | 1020.2 hPa | 0 mm | 0 m/s | 10 W/m² | - |
* Rain latest hour (hover to see other rain measurements)
** Current wind speed in m/s (hover to see current wind gust speed)